GFSSGP_850_thetae_015.txt.gz
Theta_e
310 308 313 317 316 315 317 318 330 331 334 335 335 336 338 340 338 340 341 340 338 338 338 338 337 336 335 334 335 334 332 331 328 322 318 316 315 314 313 311 312 309 308 308 308 308 308 310 310
308 314 316 317 315 316 319 327 333 333 333 333 333 336 338 342 342 340 341 338 337 336 336 336 336 335 334 335 333 331 329 325 321 318 316 315 314 313 310 311 311 308 308 308 308 308 308 309 309
310 316 316 314 313 315 319 327 330 332 332 331 331 331 336 341 341 341 340 338 338 337 337 336 336 335 334 332 329 326 322 320 318 316 315 313 313 311 310 312 310 308 308 308 308 308 309 308 308
314 317 315 314 315 314 320 324 329 331 331 331 329 332 336 339 340 339 339 339 338 338 337 336 335 334 331 328 324 321 318 317 316 314 313 313 312 309 311 311 309 308 308 309 310 310 311 310 309
317 316 312 313 314 319 322 327 330 330 330 331 332 331 336 337 340 338 338 338 338 337 336 333 333 328 325 322 319 317 317 315 313 310 312 312 310 310 311 312 313 314 315 315 315 314 313 312 311
316 313 313 314 315 323 321 327 331 330 330 331 333 334 335 339 338 338 337 336 335 334 332 330 324 320 318 317 316 316 314 313 309 311 311 313 316 317 317 317 317 315 315 314 312 312 313 312 311
314 311 314 315 324 324 324 327 330 329 330 330 332 326 340 338 335 335 333 334 331 326 320 317 316 315 315 315 314 312 311 308 310 311 315 317 317 318 317 317 316 315 315 313 313 312 312 311 311
317 311 315 314 322 325 325 320 331 331 330 329 330 327 336 340 333 327 324 321 318 317 316 315 313 310 309 310 309 308 308 310 311 318 318 319 319 320 318 318 317 316 315 315 315 313 312 312 312
317 313 313 315 320 319 323 317 328 330 328 328 328 330 337 335 325 320 317 316 316 315 315 315 314 313 309 307 308 310 312 313 317 318 320 320 321 318 317 316 315 315 315 315 315 315 315 314 314
314 310 313 314 317 320 321 322 328 329 329 327 327 330 335 327 327 323 317 316 317 317 319 318 317 318 317 315 316 315 317 318 319 320 319 318 319 318 316 315 314 314 315 316 315 316 316 316 314
314 312 312 313 318 321 318 316 321 328 327 328 326 328 329 328 326 324 319 317 317 321 324 320 320 322 323 321 322 320 321 319 322 319 315 316 317 317 316 313 313 314 316 316 316 317 317 317 315
315 313 314 313 316 315 312 315 322 320 327 327 326 327 327 326 324 323 321 320 324 326 326 326 318 322 324 325 324 322 322 321 319 320 318 313 314 314 313 313 314 315 316 317 316 316 316 315 314
313 312 314 314 314 315 314 313 315 316 326 327 326 326 325 324 323 323 319 320 326 327 328 327 318 323 322 325 325 324 324 324 323 321 320 317 313 313 313 314 314 315 315 313 313 313 312 312 312
313 312 313 316 315 314 313 315 316 317 327 327 327 326 326 325 324 322 322 322 327 328 329 330 321 324 323 324 326 326 326 326 325 322 320 320 319 317 316 316 315 315 313 312 312 313 312 312 312
314 312 313 314 315 315 317 316 314 321 328 327 328 328 327 326 324 322 323 324 326 328 330 330 322 324 324 327 327 327 327 326 320 320 320 320 320 319 319 318 317 316 315 314 313 313 313 312 311
314 311 312 313 315 314 314 312 314 321 328 328 328 328 327 325 324 324 323 323 325 328 329 329 325 326 328 328 328 326 324 321 320 320 320 320 320 320 320 318 317 316 315 314 313 312 312 310 308
311 313 315 316 314 314 315 315 313 316 328 329 328 328 328 328 327 327 327 326 324 328 329 327 326 325 326 327 326 324 321 320 320 320 319 320 319 318 316 316 315 314 313 312 311 311 308 307 306
314 316 314 315 315 315 315 314 312 312 319 317 321 323 324 324 326 327 327 327 327 325 328 327 326 325 325 322 322 321 320 319 318 317 317 317 316 315 314 313 313 310 309 308 309 307 306 305 304
316 315 315 315 315 314 314 313 313 319 320 321 321 322 325 326 326 326 327 326 327 329 329 328 326 325 323 323 321 318 319 316 315 314 314 314 315 314 313 311 309 309 308 307 306 304 303 302 301
317 316 317 317 314 314 315 314 315 316 319 320 319 321 326 327 327 328 330 331 330 328 325 325 326 324 321 320 320 320 315 314 313 313 314 313 312 311 309 310 309 308 306 304 303 302 301 298 296
319 317 318 318 314 314 316 316 315 316 318 320 319 320 324 324 325 327 326 325 324 322 322 318 318 319 318 318 316 313 314 313 313 312 311 312 311 309 309 308 307 305 303 303 299 297 297 296 296
321 319 318 318 314 317 314 316 318 316 317 318 318 318 319 320 320 320 319 319 318 317 316 316 314 314 314 314 313 313 312 312 312 312 311 310 309 308 306 305 303 304 304 302 298 297 298 297 297
319 318 318 318 315 315 316 315 317 316 318 317 317 318 317 317 317 317 316 316 315 315 315 315 315 315 315 314 314 313 313 312 311 309 309 308 306 305 306 306 306 301 299 298 298 296 294 294 296
317 319 317 317 316 318 319 316 316 315 316 315 316 317 317 317 317 316 316 316 315 315 314 315 315 315 314 314 314 313 312 310 309 308 307 307 306 304 303 300 301 300 299 299 294 292 292 291 292
317 318 318 320 318 319 318 319 317 316 315 316 316 318 318 317 317 317 316 316 315 315 315 315 314 313 313 312 312 311 308 306 304 303 302 301 302 301 300 301 300 300 296 292 291 291 290 290 289
317 317 317 325 319 317 316 320 317 316 317 317 317 317 317 317 316 316 316 316 315 314 313 313 312 311 310 310 309 306 303 302 300 301 302 301 302 302 301 300 299 293 292 291 290 289 289 289 289
318 315 315 315 312 314 316 317 315 315 315 316 316 315 316 316 316 316 315 314 313 312 311 309 307 305 305 303 302 301 301 300 302 302 301 301 301 301 299 297 293 293 292 291 290 289 289 289 288
315 315 316 311 315 318 316 318 316 315 315 313 313 313 313 313 313 313 312 311 311 310 308 305 304 303 302 300 300 300 301 303 303 302 300 301 301 299 297 296 294 293 292 290 289 289 288 288 288
316 315 313 313 310 313 313 316 313 314 313 312 312 312 312 312 312 311 311 311 309 306 304 303 303 302 301 300 299 299 298 299 296 295 298 300 298 297 298 297 294 292 291 290 289 288 288 288 288
316 316 312 310 316 309 309 311 314 312 313 313 313 313 313 312 311 310 310 307 305 304 304 303 302 301 300 299 299 297 296 294 293 294 298 298 297 296 297 296 295 291 290 289 289 288 288 288 288

GFSSGP_850_thetae_018.txt.gz
Theta_e
311 308 315 317 314 314 316 317 324 331 335 336 336 337 339 339 337 341 340 338 339 339 340 339 338 337 336 334 333 332 332 329 322 317 315 314 313 311 310 310 308 308 308 308 308 308 308 308 308
308 311 316 317 314 314 316 322 334 334 334 332 333 335 337 338 340 340 340 339 338 339 339 339 338 336 334 333 332 330 328 321 317 316 314 313 312 309 311 310 308 308 308 308 308 308 308 308 308
309 316 316 311 312 314 317 329 333 333 332 331 331 332 335 336 340 339 339 339 339 338 338 337 336 334 333 332 328 326 320 317 316 314 313 312 309 311 311 309 308 308 309 309 310 310 310 309 309
314 317 314 312 314 314 317 328 332 332 331 330 329 328 330 336 337 338 339 337 337 337 337 336 335 334 332 327 323 319 317 316 314 312 312 311 309 310 310 310 311 314 315 314 314 313 312 311 311
315 315 309 312 313 314 316 328 331 330 330 330 330 329 335 339 339 338 338 338 337 337 336 336 334 332 326 322 318 317 316 314 310 311 311 310 310 313 315 316 314 313 312 311 312 312 312 310 310
316 312 310 313 315 322 321 329 331 330 330 331 332 333 337 339 338 338 338 338 337 337 336 333 331 324 320 318 317 316 314 311 310 311 314 315 317 316 314 313 313 312 311 311 311 311 311 310 309
312 308 311 314 322 324 321 330 329 329 331 331 334 328 339 338 336 337 337 338 337 335 333 328 323 319 318 316 315 314 312 309 311 315 317 317 317 315 314 313 312 312 312 312 311 311 311 311 311
316 309 314 314 324 326 324 323 328 329 330 332 331 335 336 338 336 336 336 335 334 332 323 318 316 315 315 314 313 311 308 311 313 318 320 319 319 317 316 314 313 313 313 313 312 313 313 313 313
315 310 311 316 325 326 326 323 327 328 329 328 328 333 335 335 335 333 334 332 326 320 316 314 312 309 309 310 308 308 310 313 320 320 319 321 320 318 316 314 313 313 314 314 314 315 315 315 313
313 311 312 312 318 324 325 321 328 328 328 325 327 334 337 334 328 324 324 318 316 315 314 315 314 311 308 308 309 311 313 317 319 320 320 321 318 316 314 313 313 314 314 315 315 316 315 314 314
312 313 311 313 321 326 320 321 323 327 327 326 331 337 337 328 324 317 315 315 316 315 317 317 318 318 314 313 315 315 315 316 318 317 317 319 317 316 314 313 313 313 314 314 313 313 313 313 312
314 313 313 314 322 319 315 319 326 328 325 327 328 328 333 326 324 321 317 316 316 318 321 318 320 321 321 321 319 319 318 321 322 321 319 315 315 316 315 313 313 314 314 314 314 313 312 313 312
314 313 313 313 315 315 316 315 322 321 325 327 329 329 328 327 325 322 318 316 319 323 325 323 318 322 324 325 324 323 324 324 323 322 321 320 315 316 314 314 314 314 315 315 312 312 313 313 312
314 312 312 313 313 313 312 312 315 318 327 326 328 328 327 327 325 324 321 319 322 326 327 327 321 325 325 326 326 326 326 326 326 324 322 321 318 318 317 316 316 316 314 312 312 313 313 312 311
312 312 311 312 314 313 315 315 313 320 327 325 327 327 327 327 326 324 323 321 325 327 328 329 324 325 326 326 326 326 325 323 324 325 324 322 319 319 319 319 318 317 315 315 314 313 311 310 310
312 310 311 312 314 313 312 310 310 325 326 324 323 323 323 324 324 324 324 322 326 328 329 328 327 327 326 326 326 326 319 323 323 323 322 321 320 319 319 319 317 316 314 312 309 308 308 308 307
310 312 314 315 313 314 313 313 312 323 325 325 325 325 325 324 324 323 323 323 324 328 329 329 325 327 325 322 324 322 321 320 320 321 320 319 319 318 316 315 314 315 310 309 308 307 306 306 305
312 313 313 315 314 311 312 314 313 315 326 322 324 325 326 326 326 326 326 326 324 323 329 328 324 325 323 325 322 321 319 318 318 318 317 316 314 316 316 314 311 309 308 308 307 306 305 304 304
314 314 314 313 312 313 314 315 314 318 319 319 321 322 323 324 325 326 326 326 326 327 328 327 325 326 325 323 318 316 319 320 317 314 314 314 313 313 312 311 309 309 309 308 306 304 304 303 302
314 314 315 314 313 315 317 314 315 316 318 318 321 323 325 326 328 329 329 328 329 328 327 326 325 324 320 318 319 319 315 313 313 312 312 312 311 311 311 310 309 308 307 305 305 304 301 297 295
317 316 316 315 315 314 315 315 315 316 318 320 323 324 326 328 327 327 325 323 322 319 319 318 319 317 315 314 313 313 313 312 312 312 312 311 311 310 309 308 307 306 306 306 300 298 296 296 294
319 317 315 314 315 317 313 319 317 317 317 317 319 323 324 324 323 322 319 318 317 315 314 313 313 314 314 314 314 314 313 313 313 312 311 309 308 307 306 305 304 302 300 299 297 296 296 292 292
318 316 316 315 314 314 315 317 316 317 319 318 317 319 321 320 318 316 316 315 314 314 314 314 315 315 315 314 314 313 313 313 311 309 308 306 304 301 300 300 299 299 300 300 298 295 291 291 290
316 317 315 315 314 317 319 316 315 316 317 316 316 317 317 317 316 316 316 315 315 314 315 315 315 315 314 313 312 312 311 309 307 303 301 300 300 299 299 301 301 300 297 294 292 291 290 289 288
316 316 317 319 317 319 316 317 315 314 314 317 316 317 316 316 315 315 315 314 314 315 315 315 314 313 311 310 309 308 305 302 300 299 301 301 300 300 300 300 300 300 297 293 292 291 289 288 288
315 316 316 323 319 317 315 319 316 313 315 319 318 317 317 316 315 315 315 315 315 315 314 313 311 308 306 304 301 299 299 300 301 303 303 302 298 300 301 300 300 299 296 294 294 291 289 288 288
316 315 314 314 312 314 315 316 315 314 314 316 316 316 316 316 315 315 314 314 313 312 311 307 305 304 302 300 299 299 299 299 301 301 298 295 295 299 300 298 298 296 297 295 291 290 289 288 288
316 313 315 311 314 316 315 316 316 315 315 313 312 314 315 315 314 313 312 312 311 309 307 306 308 303 301 300 300 299 298 297 296 295 294 293 296 299 299 296 296 296 295 292 291 289 289 288 288
315 314 312 311 309 312 311 314 311 315 315 312 312 314 314 313 313 312 311 310 309 307 311 310 304 302 300 300 299 298 296 295 294 293 292 292 292 292 295 295 296 295 294 292 290 289 289 288 288
315 314 310 309 313 308 308 309 309 311 312 312 312 313 313 313 312 311 311 309 308 312 308 304 302 301 300 299 298 297 295 294 293 293 293 293 292 291 293 295 294 293 293 291 289 289 289 288 288

GFSSGP_850_thetae_024.txt.gz
Theta_e
315 312 309 317 323 324 326 324 337 342 342 336 336 338 340 340 342 345 341 340 340 339 338 336 334 333 333 333 333 333 331 326 318 315 313 310 310 309 308 308 308 308 308 308 308 308 308 308 308
311 308 314 319 322 324 326 326 331 340 336 332 331 332 333 334 339 340 339 339 338 339 338 336 335 334 334 334 333 332 327 318 315 313 311 310 309 308 308 308 308 309 310 311 311 311 311 311 311
309 310 319 320 321 323 325 335 337 334 332 331 332 333 331 331 336 335 338 338 337 336 340 337 335 335 334 333 332 328 319 316 314 312 309 310 309 308 308 310 313 313 312 312 311 311 311 310 310
312 316 317 320 322 321 325 335 334 333 332 330 330 334 331 326 331 327 328 337 338 339 338 337 336 335 334 332 330 321 317 315 312 311 310 310 308 309 313 314 312 311 311 310 310 310 309 309 309
314 317 320 321 321 320 323 333 334 333 332 329 329 332 336 336 333 326 333 331 336 337 339 337 336 334 333 330 324 319 316 312 312 310 310 309 311 316 314 311 310 310 310 310 310 310 310 310 310
316 317 319 321 324 326 323 332 333 332 329 330 330 331 340 339 334 332 338 338 337 338 338 336 334 333 330 325 321 317 314 312 312 310 310 315 317 314 313 311 311 311 311 311 310 311 311 311 310
318 318 320 322 328 329 329 332 332 329 330 331 332 333 340 339 338 338 338 338 338 337 336 335 334 331 328 323 320 316 312 312 311 312 317 318 315 314 314 313 312 312 311 312 312 312 312 313 313
318 318 320 325 329 331 332 330 328 326 331 332 334 334 339 340 339 338 338 338 337 336 336 335 333 330 328 323 319 315 311 313 316 319 319 317 316 314 314 314 313 313 313 313 313 313 313 313 313
317 319 321 327 329 329 327 328 327 329 331 331 329 336 338 337 339 338 338 337 337 337 335 333 332 331 332 330 319 314 312 317 319 320 320 319 325 323 322 314 313 313 313 314 314 314 313 313 316
319 320 321 325 328 329 327 325 325 330 331 330 336 338 339 339 338 337 337 337 336 336 334 329 329 328 327 324 316 312 314 324 327 326 323 326 322 323 317 313 313 314 315 315 315 314 313 316 317
319 321 319 320 328 326 324 324 324 326 332 331 334 339 339 339 340 338 336 337 337 336 332 327 326 320 319 323 323 323 324 327 325 324 324 324 323 321 323 322 318 315 315 319 318 317 316 314 314
320 319 318 322 327 325 325 325 326 327 328 329 333 337 336 337 336 337 337 336 334 332 330 327 316 313 313 320 322 320 328 327 326 324 322 322 325 322 324 320 316 315 316 316 315 316 314 313 314
319 319 318 316 322 327 325 325 328 328 327 330 336 337 337 336 333 331 331 330 329 329 328 321 315 311 312 316 319 323 323 325 326 326 325 324 324 320 319 316 317 316 316 316 316 315 315 314 312
319 318 316 314 319 324 324 324 326 324 330 334 336 336 336 334 331 329 327 327 326 326 327 320 320 317 320 322 324 325 324 323 322 321 321 322 320 320 320 318 317 318 318 317 315 315 313 312 311
316 317 317 315 317 320 322 322 319 323 329 333 334 335 334 332 330 327 324 323 324 325 328 324 322 321 323 324 325 321 320 318 318 320 320 322 320 320 320 319 319 319 318 316 313 312 310 310 309
316 317 317 317 317 315 320 319 320 323 327 331 333 332 332 330 328 327 325 323 324 327 328 325 324 324 323 325 323 319 319 319 321 322 321 321 320 319 319 319 315 314 313 312 309 309 309 308 308
317 317 317 318 318 317 318 318 320 324 326 329 331 329 329 328 328 328 325 326 328 329 326 326 327 325 324 325 323 319 320 322 322 320 319 319 318 316 314 314 313 311 309 309 308 308 308 308 308
317 318 317 317 320 318 319 322 321 326 327 327 328 328 328 329 328 326 325 328 329 330 326 327 328 327 326 321 321 321 322 319 319 319 318 316 314 314 312 311 310 309 308 308 308 307 307 306 305
318 319 317 319 320 323 323 323 322 325 327 327 327 328 328 328 327 324 324 324 328 327 328 327 327 326 323 322 323 321 318 318 317 316 314 313 313 312 310 309 308 308 307 307 305 304 303 302 302
319 319 320 319 320 323 324 325 323 323 326 327 328 328 328 328 327 327 329 328 326 326 328 327 327 326 324 321 319 318 318 316 313 313 313 312 311 310 309 308 306 306 303 304 303 302 301 300 300
321 321 321 321 321 323 324 326 325 323 323 324 326 328 328 328 328 328 329 328 327 327 327 328 327 324 319 318 319 317 314 313 313 312 311 311 309 307 306 305 302 299 300 300 301 300 300 299 297
322 320 321 322 323 322 322 323 327 326 326 325 326 327 326 328 329 328 328 328 329 329 328 323 320 318 317 317 315 316 315 315 312 311 309 307 306 303 301 299 298 300 300 301 300 298 298 297 297
322 320 322 321 322 323 323 323 327 327 328 328 328 329 329 327 325 324 323 324 324 324 321 318 316 315 314 313 314 313 312 311 309 307 305 305 304 303 303 302 301 301 301 300 299 298 297 296 296
320 322 322 322 323 323 322 323 322 328 327 329 327 326 327 323 320 318 317 317 317 317 316 314 314 313 313 313 312 310 306 304 304 304 303 302 302 303 303 302 301 300 300 299 298 298 296 296 295
322 323 323 325 325 323 322 322 320 322 325 328 326 324 323 321 318 316 316 315 315 315 314 314 313 313 312 309 305 302 302 302 303 302 302 302 300 299 299 298 298 299 299 298 298 297 296 296 294
322 323 322 319 321 321 321 322 323 321 321 325 324 323 321 319 317 316 316 315 315 314 314 313 313 310 307 303 304 304 300 302 302 301 299 298 297 296 296 296 297 298 298 299 297 296 296 295 294
321 321 322 324 319 324 321 323 321 320 320 324 324 321 320 319 318 317 316 316 315 314 314 313 309 307 307 308 302 299 298 299 298 298 298 296 296 295 295 295 296 297 298 298 297 296 296 295 294
321 320 322 322 324 320 320 321 320 322 321 323 324 321 320 319 318 317 316 315 314 313 312 309 309 308 303 303 300 299 298 297 297 297 296 295 295 295 294 294 295 296 296 296 296 295 295 294 293
320 320 319 320 320 318 316 316 320 320 322 322 323 321 320 319 318 317 316 315 313 312 310 310 306 305 301 301 299 298 298 297 297 296 296 295 295 295 294 294 294 295 295 295 295 294 295 293 292
320 320 319 318 318 319 320 318 316 320 320 320 322 321 320 320 318 317 315 313 311 310 309 307 303 303 303 300 298 298 297 297 297 296 296 295 295 294 294 294 294 294 294 294 294 294 292 292 291

GFSSGP_850_thetae_027.txt.gz
Theta_e
313 314 316 317 323 326 327 328 332 342 340 338 339 339 341 341 345 348 342 342 341 340 334 330 331 332 332 332 333 333 331 327 318 314 312 309 309 308 308 308 308 308 308 309 310 310 311 311 311
319 314 314 320 324 326 327 327 328 340 336 334 335 335 336 340 342 343 341 343 342 340 334 332 332 332 333 333 333 332 328 319 315 313 309 310 308 308 308 308 309 311 312 312 312 311 311 311 311
314 314 318 322 324 325 327 335 338 337 336 335 334 332 331 335 337 341 341 340 341 337 336 335 334 333 333 333 332 330 321 316 314 311 310 309 308 308 309 313 313 312 312 311 310 310 310 310 310
314 315 319 323 325 325 326 336 333 334 333 332 333 332 329 326 329 334 341 339 339 338 337 335 334 334 334 333 332 325 317 315 313 310 310 309 308 312 314 311 311 311 310 310 310 310 310 310 309
315 318 322 323 324 324 323 334 333 334 332 331 331 332 328 327 329 333 341 340 335 334 336 335 334 334 333 332 328 320 316 313 312 310 309 308 313 314 311 311 310 310 310 311 311 311 311 312 312
316 319 322 323 325 325 324 331 330 332 330 330 331 334 338 336 333 332 337 337 335 331 334 336 335 333 332 328 321 318 315 313 311 311 309 315 315 313 311 311 311 311 311 311 312 312 313 313 313
318 320 320 322 326 329 326 331 332 331 329 331 329 331 339 340 337 338 338 334 331 328 334 335 334 332 329 324 320 317 312 313 311 310 317 317 314 314 312 312 311 311 312 312 313 313 313 313 313
317 321 320 322 327 331 329 332 331 331 330 328 330 334 334 339 340 339 338 332 328 332 336 334 333 329 326 324 320 315 312 312 312 318 319 316 315 315 315 314 312 312 313 314 314 314 313 315 318
318 320 320 322 330 331 331 331 329 329 328 326 330 335 338 341 341 339 338 337 336 336 335 333 331 332 330 325 319 314 313 317 318 320 319 322 327 326 325 315 314 313 314 314 314 314 313 318 319
318 319 321 324 330 328 329 329 329 328 325 331 334 338 340 341 340 339 339 337 336 336 334 331 332 331 331 329 322 318 316 322 327 328 326 328 327 328 324 317 313 314 314 315 315 316 318 319 319
318 321 322 322 328 328 326 326 326 328 331 332 336 341 341 341 339 338 338 338 337 335 331 328 328 330 328 327 324 323 325 327 329 329 328 327 328 328 327 325 322 322 320 322 321 321 319 319 318
320 321 321 322 327 325 324 325 325 325 320 326 334 340 340 340 339 339 338 338 336 333 331 332 330 328 326 323 323 324 327 328 327 325 322 327 327 328 327 324 322 322 321 320 320 320 319 318 317
320 321 321 323 325 324 325 325 326 328 326 330 337 339 338 336 333 333 332 332 333 330 329 328 327 325 324 324 325 328 328 327 328 327 324 324 324 323 324 324 322 321 320 320 320 319 318 316 315
320 320 319 319 324 327 326 325 325 328 328 331 334 333 332 330 329 329 328 329 329 329 328 327 325 324 325 328 328 328 327 323 323 322 320 320 322 320 321 320 320 320 320 320 318 317 315 314 313
319 319 318 318 322 323 325 322 322 327 329 331 331 331 329 328 326 326 327 327 327 328 328 327 327 328 329 328 325 320 318 318 318 319 321 320 321 320 319 319 319 320 318 314 313 312 312 312 312
319 320 320 320 321 323 325 321 323 326 327 328 329 329 329 329 327 324 324 325 326 329 329 329 328 329 329 325 323 321 318 317 318 319 322 322 321 320 320 319 319 315 313 312 312 311 311 311 311
319 319 319 319 320 321 324 321 323 325 326 329 329 330 330 329 327 327 325 324 325 329 332 330 327 326 325 325 324 319 320 320 320 322 320 319 319 319 317 314 314 312 312 311 312 312 311 311 310
318 319 319 319 320 322 320 322 322 325 325 328 329 329 330 329 329 329 327 327 327 330 332 331 329 325 324 324 322 320 320 321 321 319 318 317 316 314 313 313 311 311 312 311 311 310 308 307 305
320 320 318 320 322 320 319 322 323 325 325 326 327 329 330 330 331 330 330 330 331 332 331 332 330 327 326 325 324 323 321 319 318 317 315 314 313 312 311 312 312 311 310 308 308 306 304 303 302
319 319 320 320 320 322 320 321 324 326 326 326 326 327 328 330 331 330 331 331 332 331 330 329 330 327 327 325 325 323 321 319 316 314 313 313 312 311 310 310 309 307 306 304 303 304 303 302 301
320 320 321 321 321 321 323 324 326 325 327 328 328 328 328 329 331 331 332 331 330 329 329 328 328 328 326 323 321 321 320 316 315 314 314 312 311 309 308 307 306 304 303 303 302 302 302 301 300
321 322 322 322 323 322 323 321 325 327 326 327 328 329 330 330 331 331 332 330 329 328 327 328 327 325 322 320 319 319 318 317 317 315 313 311 309 307 305 304 304 304 303 303 302 301 300 300 299
324 322 323 323 324 325 324 322 324 327 327 327 326 327 329 329 330 331 331 330 330 327 327 326 323 321 320 318 318 318 317 315 313 310 308 306 306 305 305 305 304 304 303 302 301 300 300 299 298
323 323 323 324 323 324 321 323 324 328 327 328 328 329 329 330 328 327 327 327 327 327 323 321 319 318 317 317 316 315 312 308 307 306 305 305 304 303 302 301 301 300 300 301 300 300 299 298 298
322 323 325 325 324 324 323 323 322 321 325 328 330 329 329 326 323 322 322 322 323 322 320 318 317 316 315 313 311 308 306 308 309 305 304 302 301 300 299 298 298 298 298 299 300 299 298 297 297
323 323 325 322 322 321 324 321 322 324 323 326 328 328 328 324 321 320 319 319 319 319 318 316 316 315 313 309 307 308 306 305 304 303 301 300 299 298 298 297 297 297 298 298 299 299 298 297 297
323 322 323 324 326 324 319 319 324 323 323 325 328 327 326 323 321 320 319 319 319 318 317 316 316 313 309 308 308 303 301 300 301 300 300 299 298 297 297 297 296 296 296 297 298 298 297 297 296
322 322 322 321 322 322 320 320 322 324 323 325 327 326 325 323 321 320 319 319 319 318 317 317 314 310 309 306 304 301 300 301 300 300 299 298 298 297 297 296 296 296 296 296 296 297 296 296 296
323 322 321 322 324 323 319 320 320 320 322 323 325 325 324 323 322 320 320 319 318 317 317 314 312 310 306 304 304 303 301 300 300 300 299 298 298 297 296 296 295 295 295 295 296 295 295 295 295
322 323 323 322 321 321 324 321 319 320 320 322 323 324 324 323 322 321 320 319 318 317 315 313 311 308 305 307 304 301 301 300 300 299 298 298 298 297 296 295 295 295 295 294 294 294 293 293 294

GFSSGP_850_thetae_033.txt.gz
Theta_e
311 311 315 319 314 313 317 319 332 336 338 337 337 341 342 343 345 343 342 341 337 329 328 330 331 331 326 328 331 330 325 315 312 309 308 307 308 308 308 311 312 311 310 310 310 310 310 311 317
311 316 321 321 312 314 316 334 338 336 336 336 337 338 340 343 342 343 343 341 338 333 330 329 331 328 329 331 331 327 316 313 310 308 308 308 308 309 312 311 310 309 309 309 309 309 309 311 320
311 321 319 308 309 314 317 335 333 335 335 334 333 332 334 342 342 343 342 339 333 328 329 329 329 331 332 332 329 319 314 312 309 309 308 308 310 312 311 310 309 310 310 310 311 312 313 312 314
313 315 315 312 314 316 318 331 333 332 333 333 331 328 329 337 342 342 337 337 328 329 329 330 331 333 332 330 325 316 314 310 308 309 309 311 312 311 310 310 310 310 311 313 313 313 313 313 313
317 316 309 312 315 318 324 330 329 330 331 333 331 328 331 333 340 340 337 335 330 331 331 332 332 333 331 328 321 315 312 310 309 309 310 313 311 310 310 310 311 311 312 313 313 313 315 316 315
316 315 311 312 315 319 331 331 330 329 330 332 330 330 331 330 339 337 338 336 334 331 332 332 333 328 326 327 317 314 311 310 309 309 313 311 310 310 311 311 311 312 313 313 314 313 316 318 318
315 313 313 313 315 318 332 332 332 332 332 331 330 332 332 335 337 336 337 337 334 332 333 333 328 325 329 322 317 313 310 309 309 314 312 311 311 311 311 311 312 312 313 313 313 314 319 319 318
316 311 312 314 316 329 329 329 328 329 330 330 329 331 333 338 336 335 335 335 332 332 330 327 322 324 328 320 315 311 310 309 313 313 313 314 313 312 313 311 312 313 313 314 314 317 319 320 319
316 311 312 314 325 330 325 326 328 327 329 328 329 336 335 334 335 334 332 331 328 329 328 325 326 330 325 318 313 311 310 312 315 316 323 320 323 324 318 314 312 313 314 316 320 320 320 319 318
315 311 314 320 325 327 326 325 328 330 328 327 336 335 334 333 334 331 326 326 328 325 323 327 328 326 320 316 312 311 312 317 318 325 326 325 327 325 322 323 321 320 321 322 321 321 320 319 318
316 314 315 324 326 325 325 326 327 328 327 327 332 333 332 333 331 327 325 323 328 324 322 327 327 325 319 314 311 314 321 321 322 326 327 325 327 325 326 325 322 322 322 321 321 320 319 319 317
315 316 317 326 325 326 326 323 322 326 326 327 332 331 332 332 328 328 325 325 323 324 326 327 330 328 321 313 316 322 325 325 327 325 328 329 325 325 323 323 323 321 321 321 321 320 320 319 318
316 317 318 326 326 326 326 325 323 326 326 324 331 331 332 332 332 331 328 330 328 327 330 330 329 324 318 322 326 328 326 326 324 323 326 324 325 326 324 323 322 322 321 320 319 320 320 315 312
318 318 318 320 326 325 325 325 326 324 328 329 332 333 335 333 332 332 332 331 330 331 331 329 327 322 323 325 325 328 325 326 323 326 323 324 322 321 320 320 321 319 319 319 317 318 316 312 310
320 318 318 318 324 324 324 324 324 324 332 335 334 335 334 334 333 331 328 327 331 330 327 325 326 322 324 325 328 327 326 324 325 321 319 319 319 319 319 320 319 318 318 319 318 315 311 310 310
319 318 317 318 323 323 322 324 322 328 333 336 335 330 330 330 333 331 332 331 331 330 329 317 321 325 324 323 327 326 323 322 319 317 319 321 321 321 320 320 317 317 315 312 310 310 311 311 308
318 317 320 320 322 324 322 321 321 329 332 334 331 328 326 327 329 329 329 330 329 328 323 321 321 324 323 323 323 321 318 317 317 318 320 320 320 320 320 317 315 314 311 310 311 311 310 304 303
319 319 319 320 318 323 321 319 318 327 328 328 328 327 326 325 327 328 328 329 328 328 325 322 324 325 326 323 320 318 319 319 320 319 321 319 318 316 314 313 313 311 311 311 310 306 302 301 300
321 319 318 317 317 321 322 318 317 321 326 327 328 327 327 325 324 325 326 328 328 329 328 325 325 327 325 322 320 320 323 320 320 320 320 317 314 313 313 312 312 311 310 307 303 301 301 300 300
322 320 319 318 318 319 319 318 316 318 322 327 328 329 329 327 326 325 325 327 329 330 329 328 326 327 327 322 322 323 323 321 320 319 317 314 313 312 312 311 311 308 304 301 301 300 299 300 301
321 322 319 319 318 317 316 316 319 319 322 327 328 329 329 328 329 327 328 328 331 331 331 330 329 325 326 325 324 325 321 319 318 317 313 313 312 312 310 308 305 304 304 303 302 300 299 301 301
321 321 322 322 318 317 319 321 324 322 323 322 326 328 329 328 330 329 329 332 332 332 331 330 329 327 326 325 326 323 321 319 318 315 315 313 312 308 307 307 306 304 304 303 302 300 299 299 300
322 321 321 322 322 323 321 319 319 323 321 323 324 325 329 330 331 331 330 331 333 333 331 329 328 327 325 324 323 322 320 319 317 316 314 313 308 306 307 306 305 304 303 302 299 295 298 300 300
321 321 322 322 321 323 322 321 323 323 322 324 323 326 328 331 332 331 331 332 332 332 329 328 328 325 324 324 323 321 320 319 316 314 313 308 306 306 305 304 304 303 301 296 293 294 296 299 300
321 321 322 322 323 324 324 323 321 322 321 324 325 325 326 331 331 331 331 332 332 330 327 328 328 325 324 321 321 320 319 317 316 314 309 308 307 305 304 303 301 298 295 294 293 295 297 298 298
321 320 323 327 325 324 324 325 323 320 322 323 325 322 326 329 329 330 332 331 328 327 326 327 325 324 322 321 319 319 316 314 313 309 309 309 308 305 300 299 296 296 296 294 293 293 295 296 298
322 323 321 324 323 321 320 317 321 320 322 323 323 322 329 329 330 331 330 330 327 325 326 326 324 321 320 319 319 318 317 314 309 309 308 309 306 302 299 297 297 296 295 294 295 295 295 296 296
320 319 320 320 320 321 319 321 323 321 325 323 325 329 330 329 329 328 328 328 327 326 325 323 321 319 319 318 317 315 312 310 307 305 304 304 300 299 298 297 297 297 296 295 295 295 296 295 295
320 319 320 319 320 321 321 318 318 320 319 323 326 329 329 327 326 325 325 324 325 325 323 321 319 318 317 316 313 310 309 306 302 304 303 300 300 299 298 298 297 297 297 295 295 295 295 294 293
320 321 321 317 319 320 315 318 317 317 318 320 324 327 328 327 324 323 322 321 321 321 320 319 318 317 316 315 311 309 309 305 305 302 301 302 300 299 298 298 298 297 296 295 295 295 294 293 292

GFSSGP_850_thetae_039.txt.gz
Theta_e
315 310 311 315 311 308 312 314 314 324 336 337 336 339 340 342 340 338 339 337 333 337 339 337 337 335 326 326 327 322 312 308 307 308 308 309 311 311 310 310 310 310 313 318 321 317 318 321 324
312 312 315 317 308 310 311 313 323 326 337 339 338 339 340 343 340 339 337 335 337 339 338 337 336 332 325 328 327 315 310 308 307 308 309 311 311 310 309 309 309 310 316 321 316 316 316 317 321
312 315 320 308 305 310 311 317 332 332 335 331 329 333 337 341 338 338 338 338 339 339 338 338 335 327 327 329 323 312 308 308 308 309 311 311 310 309 310 310 311 312 312 315 315 315 317 316 317
312 316 312 307 308 309 313 313 324 331 332 330 328 328 336 340 339 339 338 341 338 338 338 337 333 326 330 327 315 310 308 308 308 311 311 310 309 310 311 312 313 313 313 313 313 314 315 317 318
314 314 308 308 310 312 327 329 325 330 331 330 328 329 334 338 340 340 339 338 340 339 338 335 327 329 329 320 313 309 308 308 309 312 311 310 310 311 312 313 313 313 314 314 315 315 315 314 315
315 311 308 310 311 312 329 330 330 330 330 330 330 331 334 336 338 337 336 337 338 338 336 331 328 330 323 314 310 308 308 309 311 311 310 310 311 312 313 313 313 313 315 317 317 316 316 316 316
312 309 311 311 313 313 330 330 330 330 329 329 329 330 334 336 336 335 332 330 333 335 332 329 329 320 314 312 309 308 309 309 312 310 310 311 311 312 313 313 313 314 315 316 317 317 317 318 317
314 309 311 311 311 312 328 329 329 330 329 329 332 332 333 334 335 333 333 328 329 332 331 328 320 316 312 311 309 309 309 311 311 310 310 311 311 312 312 313 313 314 314 315 317 318 319 319 318
315 311 311 312 313 321 328 327 329 328 329 330 331 332 332 333 335 332 331 327 326 326 324 322 320 318 319 319 316 311 309 313 311 311 311 311 311 312 313 313 313 314 315 318 319 319 318 319 318
312 311 314 312 319 326 327 326 327 328 332 330 332 331 331 333 332 332 329 326 325 324 323 323 324 323 322 316 311 309 314 312 311 313 314 316 313 313 312 314 315 317 319 319 319 319 319 319 318
312 313 313 315 323 325 324 323 327 327 328 330 331 331 333 331 330 330 329 328 326 324 323 323 321 320 318 314 311 311 314 318 318 324 324 322 322 321 319 319 320 320 320 320 320 319 319 318 318
314 314 314 321 324 324 323 325 324 327 325 331 331 331 329 326 325 327 325 324 320 321 322 319 321 325 318 313 311 315 315 322 325 326 326 324 323 324 322 321 321 321 321 321 320 320 319 318 315
312 314 319 323 325 324 323 324 323 325 330 330 330 326 327 327 325 326 325 325 322 324 322 323 327 324 317 313 312 317 326 327 327 326 325 323 323 323 324 323 322 321 321 320 320 319 318 316 313
317 317 322 323 324 323 323 323 325 327 331 327 325 327 328 327 321 324 326 323 321 321 323 324 325 323 316 313 314 318 322 325 327 327 326 326 323 323 323 323 322 321 320 320 319 318 316 313 310
318 319 323 323 322 323 324 323 323 330 330 327 327 327 327 325 323 323 320 320 320 323 325 324 325 321 315 315 319 319 322 325 324 324 324 323 322 323 324 323 321 321 320 319 318 316 311 310 309
316 315 320 323 323 322 320 323 322 330 330 331 329 328 327 327 326 323 323 319 322 323 326 327 325 320 314 321 325 326 326 325 326 324 321 321 322 322 323 321 321 321 319 317 314 310 310 308 305
313 315 316 319 321 320 319 323 322 325 329 330 332 330 329 329 327 326 326 324 322 323 324 327 325 320 316 324 327 327 327 326 326 320 318 318 319 319 320 320 320 319 316 313 311 310 308 302 300
319 318 316 318 320 319 320 319 321 326 330 330 331 331 331 330 329 328 327 325 323 323 323 326 325 321 322 323 323 324 328 328 326 322 318 319 320 320 320 320 319 316 312 311 310 306 302 300 297
319 319 319 315 317 321 320 317 323 325 329 331 330 332 332 330 330 328 324 322 321 325 326 327 327 324 323 323 325 326 328 327 323 318 321 320 320 320 319 319 315 312 311 309 306 303 301 299 298
319 319 318 318 318 319 317 318 316 323 329 331 332 332 332 330 330 330 326 325 325 327 326 327 325 325 323 323 325 327 327 323 319 320 320 319 319 318 317 313 311 311 309 308 305 303 301 299 297
318 319 319 319 317 314 316 317 316 316 325 329 330 332 328 331 330 330 328 327 328 328 328 326 320 321 322 322 326 326 324 320 320 320 320 319 317 315 312 311 311 308 308 307 306 303 301 300 296
319 318 318 318 318 313 315 316 317 316 321 322 326 328 325 328 330 330 329 328 329 328 328 327 322 319 319 323 325 325 324 320 319 321 321 318 316 313 312 311 308 308 309 307 308 304 301 297 294
319 320 319 319 318 318 317 315 315 318 317 321 323 324 325 326 329 330 329 328 328 329 329 327 323 320 320 322 325 326 324 320 322 322 320 317 315 313 312 310 309 307 305 306 301 300 296 293 293
319 319 317 318 318 319 320 317 316 318 319 317 321 324 325 324 326 328 328 329 329 329 329 327 326 324 324 326 327 326 322 321 322 323 319 317 314 312 311 308 307 305 304 306 301 296 294 293 293
318 318 319 319 319 319 319 319 318 317 316 317 317 322 325 325 324 325 326 327 328 328 328 327 327 326 327 328 327 327 325 322 323 321 319 317 314 313 310 307 305 303 305 303 296 295 294 292 293
319 317 317 321 319 318 320 322 320 318 318 318 320 321 323 325 325 324 325 325 325 326 327 327 327 327 328 328 327 326 326 324 323 321 319 317 315 312 308 306 306 303 304 297 297 296 295 293 293
320 320 317 319 317 317 318 318 315 317 319 319 320 321 324 323 326 326 326 327 326 326 327 328 328 328 328 328 327 325 325 324 322 321 319 315 312 308 306 305 305 305 299 298 297 297 296 296 294
319 317 319 317 320 323 317 317 317 320 320 320 319 323 324 326 327 327 327 328 329 329 330 330 330 328 327 327 325 324 323 323 322 320 317 314 308 305 306 307 304 304 300 298 297 297 297 296 294
317 317 316 315 314 317 317 317 311 317 318 321 319 321 324 327 328 329 330 329 330 330 330 330 327 326 326 326 325 324 323 322 321 318 314 312 310 310 308 302 303 300 298 298 297 297 297 295 294
317 317 315 315 316 315 313 315 313 313 314 319 322 322 323 325 325 326 327 329 329 330 331 329 327 325 324 324 324 324 320 318 316 315 314 311 308 303 301 302 299 298 298 298 297 297 296 294 294

GFSSGP_850_thetae_042.txt.gz
Theta_e
314 310 310 315 311 307 311 312 313 318 327 338 337 339 338 339 338 336 339 339 337 336 338 335 335 332 324 325 325 320 312 308 307 308 308 309 311 311 310 310 310 311 315 320 320 321 324 324 323
311 311 316 315 307 309 309 311 317 327 336 332 331 336 339 340 337 336 337 338 337 339 338 335 334 331 324 326 324 313 309 308 308 308 310 311 310 310 310 312 314 318 319 318 316 317 322 321 318
311 317 319 305 304 309 310 312 329 331 333 330 328 334 336 337 337 336 337 338 342 339 338 335 334 328 325 327 319 310 308 308 309 310 311 310 309 309 310 315 319 319 316 315 315 315 316 317 317
311 317 310 307 308 308 311 311 320 326 331 329 328 327 337 337 339 337 337 338 339 339 337 336 333 325 327 326 314 308 308 308 310 311 310 309 309 310 311 312 314 314 314 314 315 316 317 318 318
315 313 307 307 308 309 311 328 328 328 330 329 328 330 336 336 340 338 338 338 338 338 337 336 329 326 328 317 311 308 308 309 311 310 309 309 311 313 313 313 313 313 313 314 314 314 314 314 315
314 310 307 309 310 310 321 329 329 329 330 329 330 333 335 333 337 338 339 338 338 337 337 332 327 328 317 311 309 308 308 311 311 309 309 310 312 313 314 314 315 315 316 316 315 316 316 316 316
311 307 309 311 311 312 326 329 329 329 328 328 330 332 335 333 334 337 338 336 335 336 336 331 329 324 312 309 308 308 310 312 310 310 310 312 312 313 313 314 316 316 317 317 317 317 317 317 315
314 306 311 310 310 311 327 329 329 329 328 328 331 333 335 334 333 332 336 335 333 334 332 330 328 318 312 309 309 309 312 311 310 310 311 312 313 313 313 313 314 315 316 317 318 318 318 318 317
313 309 310 312 311 313 326 327 328 329 329 331 331 333 333 333 332 331 328 330 328 329 329 326 317 311 311 309 313 315 312 311 310 310 311 312 312 313 313 313 314 315 315 317 319 319 318 318 318
310 310 312 311 312 321 326 326 326 328 331 331 331 332 332 332 330 330 325 325 327 325 325 320 313 313 316 317 318 312 312 310 310 311 311 312 312 313 313 313 315 316 317 319 319 319 318 318 318
311 313 312 313 314 324 325 324 326 329 330 330 331 331 332 332 330 328 327 325 326 323 321 319 317 320 321 320 311 312 312 311 311 311 312 311 312 312 313 314 316 318 319 319 319 319 319 319 318
313 313 313 314 323 324 322 325 325 325 325 330 331 331 330 334 331 330 325 324 323 323 323 321 321 322 319 314 310 310 312 312 315 316 318 317 318 316 318 319 320 320 321 320 320 320 319 318 317
311 312 317 315 323 324 323 323 322 327 327 330 330 331 331 326 329 329 327 326 323 322 321 321 321 319 316 313 310 314 315 317 322 324 324 323 323 322 321 321 321 321 321 320 320 319 319 318 315
315 317 319 322 323 322 323 323 323 329 330 330 330 329 326 324 326 323 322 321 319 318 318 320 323 320 316 312 310 316 315 322 325 325 325 323 322 323 324 323 322 321 321 320 319 319 317 315 310
317 321 322 322 322 322 323 323 322 330 331 330 329 326 327 324 324 324 324 322 322 320 319 323 326 323 317 313 311 317 323 326 326 325 324 324 323 322 323 323 322 321 320 319 318 317 313 310 309
314 316 321 321 322 322 320 322 323 331 328 326 327 327 328 326 322 324 325 319 321 322 322 324 326 324 318 313 312 318 321 323 323 323 323 323 323 323 323 323 322 321 320 319 317 313 310 309 306
313 314 315 319 321 321 319 322 322 330 328 327 327 327 327 326 322 323 319 318 320 321 324 323 323 322 318 314 314 318 319 323 324 324 323 322 321 321 323 323 321 320 320 316 312 310 309 306 301
318 318 316 318 320 320 321 320 321 327 329 329 329 328 327 326 327 325 323 320 320 322 324 325 325 323 319 314 318 323 325 325 326 324 320 318 318 319 320 320 320 319 316 312 310 309 306 302 299
318 318 319 317 316 322 320 318 321 323 326 328 330 330 328 328 328 328 326 324 321 322 322 323 325 324 319 315 322 326 327 326 326 324 321 319 319 320 320 320 319 316 312 311 309 307 303 301 299
318 319 318 316 316 317 316 316 318 322 325 328 329 329 329 329 329 329 327 327 324 323 321 321 321 325 320 320 323 324 323 325 326 324 323 319 320 320 320 318 317 312 311 309 307 305 302 300 298
318 318 318 318 316 314 316 316 313 318 325 329 329 329 329 330 330 329 329 325 323 321 323 322 323 325 324 321 322 323 326 327 326 325 320 319 319 319 318 316 313 311 310 307 306 304 301 298 297
319 317 318 318 317 316 313 315 315 314 324 323 328 330 330 331 331 330 329 328 325 323 324 326 325 325 325 324 323 322 324 326 326 324 320 319 318 317 315 313 311 310 307 306 305 303 303 303 298
317 318 319 318 318 317 317 315 314 315 316 323 325 328 330 331 331 330 330 328 327 326 326 327 327 327 324 324 324 323 325 326 324 322 319 319 317 315 313 312 311 307 306 305 306 307 304 306 295
318 318 315 315 316 319 318 315 316 316 317 316 322 325 329 328 330 328 329 329 328 327 327 328 328 327 326 324 323 323 325 325 324 321 320 319 317 315 313 311 310 307 306 305 307 311 306 295 294
316 316 318 319 319 320 318 318 317 316 316 316 316 321 326 329 329 328 327 329 328 327 327 328 328 328 327 324 322 321 322 325 322 321 321 320 318 316 314 312 310 307 305 306 310 308 299 298 295
318 317 317 320 319 317 318 320 318 317 317 319 317 318 319 323 325 327 326 327 328 327 327 328 329 329 328 326 323 323 323 326 323 321 323 321 318 317 314 311 307 305 307 311 307 305 298 296 295
318 318 315 317 316 316 316 316 313 316 319 319 319 318 319 322 323 325 325 325 326 327 326 327 327 327 327 327 325 326 326 326 324 323 321 320 317 316 313 311 314 310 310 306 303 299 297 296 296
318 316 317 315 320 321 316 316 315 315 317 320 319 320 322 321 323 324 324 324 325 325 325 325 325 325 326 327 326 326 327 326 323 322 322 321 319 317 316 314 309 310 306 302 299 297 297 297 296
317 316 314 314 313 316 316 315 311 313 315 317 318 320 322 323 324 324 325 326 325 325 325 325 327 328 328 328 328 327 326 325 322 322 319 319 319 317 313 309 307 303 302 299 298 297 297 297 296
315 316 314 314 316 313 312 314 312 310 311 313 318 321 321 323 324 326 327 327 327 327 328 328 329 329 325 325 326 325 324 323 321 320 321 319 317 314 305 305 302 301 299 299 297 297 297 296 294

GFSSGP_850_thetae_045.txt.gz
Theta_e
313 311 310 315 316 314 316 316 314 318 323 338 337 338 339 339 339 341 337 339 340 339 336 333 328 324 324 324 322 317 312 309 308 308 309 309 310 311 311 310 311 314 316 319 319 319 320 316 316
311 310 316 315 315 314 315 314 320 329 333 331 332 338 339 339 337 336 338 338 340 338 336 333 327 324 324 324 320 314 309 308 308 308 309 311 311 310 310 312 316 317 317 319 321 320 318 316 316
311 314 318 316 313 314 315 314 322 327 334 330 331 334 337 337 336 334 336 339 339 338 336 333 327 324 325 323 316 310 307 307 308 310 311 310 310 311 312 317 317 315 315 318 317 317 316 317 317
311 318 311 314 314 312 313 314 321 328 331 329 330 336 337 337 336 335 337 338 338 338 336 333 327 325 326 321 312 308 307 308 310 311 310 310 311 314 317 318 315 314 315 315 316 316 317 318 317
312 313 315 312 312 312 311 321 329 327 330 329 329 334 336 337 338 337 339 337 339 337 336 333 326 326 322 317 309 307 308 309 311 309 309 310 312 315 317 314 314 313 313 315 315 316 316 315 315
314 310 314 313 313 313 314 329 330 330 329 329 333 333 335 336 336 338 336 337 337 337 336 334 326 324 312 309 308 308 309 311 309 309 310 311 312 312 313 313 313 314 315 315 315 316 316 315 314
314 314 315 313 314 314 324 329 330 329 328 329 331 334 335 334 334 336 337 335 336 336 335 331 327 322 316 309 308 308 310 310 309 310 312 313 313 314 314 316 316 316 316 316 317 318 317 315 315
313 312 313 313 313 314 326 328 329 328 329 328 331 334 332 334 334 334 332 334 336 334 334 329 327 321 313 313 309 309 311 309 309 311 313 314 314 315 316 317 317 317 317 317 318 318 318 318 317
313 316 315 314 313 315 327 328 328 329 330 331 330 332 333 332 332 331 332 333 332 333 333 329 323 315 313 315 314 312 311 310 310 312 312 313 313 314 315 315 316 316 317 319 319 318 319 318 318
314 315 315 314 314 318 327 327 327 330 331 332 332 332 332 332 330 329 329 328 328 328 325 324 324 320 312 316 314 312 311 310 310 311 312 313 313 313 313 314 315 317 319 319 319 319 319 318 318
312 316 315 314 313 317 326 325 326 330 331 331 331 330 329 329 329 328 326 327 327 325 322 322 319 313 314 316 318 319 313 310 311 311 312 312 313 313 313 314 316 318 319 319 319 319 318 318 318
314 313 313 314 319 323 324 325 327 325 326 330 331 332 329 328 328 327 325 325 324 323 323 318 314 312 317 317 317 313 311 310 311 311 312 312 313 313 313 315 317 319 320 320 320 319 319 318 317
314 314 314 317 321 323 324 323 324 327 329 331 330 333 330 328 327 326 324 322 320 317 315 317 318 318 317 318 311 313 311 311 311 312 311 312 312 313 317 319 320 320 321 320 320 320 319 318 317
315 315 319 321 322 323 323 324 323 329 330 330 330 329 328 330 326 325 323 323 322 319 319 320 319 320 318 312 309 314 312 313 315 318 318 320 321 320 320 321 321 321 321 320 320 320 319 317 312
316 320 322 323 322 323 323 325 323 329 329 329 328 327 327 326 328 328 325 323 323 321 319 320 321 317 316 314 310 315 315 315 323 323 324 323 322 322 323 323 323 322 321 320 320 319 317 312 309
315 318 323 320 323 322 320 324 324 330 329 329 328 326 327 324 325 324 321 322 320 319 320 321 322 322 319 315 311 314 315 321 324 324 323 323 322 322 322 322 322 321 320 320 319 317 312 310 305
317 318 317 318 322 322 321 325 324 330 328 328 327 326 327 326 325 324 320 319 317 318 320 322 325 325 320 315 312 313 317 323 324 322 323 322 322 321 322 322 322 321 320 320 317 312 310 306 303
320 319 318 319 322 322 324 324 325 329 328 326 327 327 327 327 322 324 324 322 322 321 320 322 324 325 322 316 313 313 318 321 321 323 323 323 321 320 319 322 322 321 320 318 314 310 308 305 302
318 319 320 318 316 323 324 324 323 327 328 328 328 328 327 325 325 323 322 321 319 321 322 323 323 323 323 319 314 315 318 319 324 324 324 322 319 318 319 320 320 320 318 315 311 309 307 304 305
318 319 319 318 317 318 318 319 318 325 328 329 328 329 327 326 326 327 326 323 321 319 321 323 324 325 324 320 314 315 320 323 326 325 324 323 320 319 320 320 319 318 316 312 310 307 307 308 303
319 319 319 320 318 315 317 318 317 322 324 326 328 329 328 328 327 327 328 326 324 321 319 320 322 323 325 322 317 317 323 325 325 324 325 324 321 319 320 320 318 316 313 311 308 307 308 306 299
319 317 318 319 320 320 315 319 316 317 325 325 326 328 329 328 327 328 328 328 326 325 323 321 322 322 322 325 321 319 321 323 322 324 324 323 320 319 319 318 316 313 311 310 307 307 308 304 295
320 317 319 319 320 319 318 320 319 316 318 326 326 328 329 327 327 328 328 328 327 325 323 322 322 322 323 324 325 322 322 322 323 324 325 323 319 319 318 317 315 313 311 308 307 306 308 307 307
317 318 317 317 319 322 319 319 321 319 320 319 320 326 327 327 327 327 329 330 328 328 326 324 323 325 325 326 326 326 326 324 324 325 325 321 319 319 318 316 314 312 310 307 306 308 310 310 303
318 320 322 323 324 324 319 321 322 320 317 318 319 318 323 327 327 328 329 329 330 329 328 326 326 326 327 327 327 326 325 324 325 326 325 322 320 318 318 316 313 312 309 306 306 309 310 307 300
319 320 325 322 323 321 319 322 321 319 316 318 319 318 317 320 324 328 328 328 329 327 329 328 327 327 327 327 327 327 325 324 323 324 324 322 321 320 319 316 313 311 309 312 306 308 304 299 296
319 321 318 320 317 323 320 319 318 318 320 320 320 319 318 317 318 321 326 328 329 327 326 327 328 327 327 327 327 327 327 325 323 322 323 324 321 319 318 314 312 310 308 306 307 302 300 297 296
318 317 322 319 323 323 319 318 318 318 318 319 321 320 321 320 321 321 322 323 325 326 326 327 328 327 327 327 327 327 327 326 324 324 324 323 321 320 319 313 312 309 307 306 302 299 298 298 296
319 319 316 318 318 321 320 319 317 317 317 318 319 320 321 322 322 322 323 323 324 324 324 324 325 325 325 325 326 326 326 326 325 325 323 321 321 320 318 314 311 307 304 302 299 299 301 297 297
317 319 318 323 319 317 317 319 314 315 314 314 315 319 321 322 323 324 324 325 325 326 326 326 326 325 325 327 326 325 322 322 322 322 321 321 320 319 318 314 307 303 305 300 298 299 300 299 296

GFSSGP_850_thetae_051.txt.gz
Theta_e
315 316 317 317 319 319 318 321 322 323 326 331 332 335 337 334 335 339 338 344 344 340 337 331 337 340 339 338 337 335 334 334 327 320 312 308 308 308 310 322 325 325 320 316 314 315 316 315 314
319 316 317 317 319 318 320 320 321 322 327 334 335 338 336 339 333 340 340 340 344 341 338 333 337 339 338 337 336 335 334 327 320 311 308 308 308 309 312 317 324 325 322 315 315 316 316 314 313
316 316 318 322 320 319 319 321 322 322 326 333 332 335 339 341 339 340 341 330 337 340 337 334 334 338 336 336 335 334 326 319 310 307 308 309 310 312 314 319 320 325 322 315 316 316 316 314 313
317 318 317 317 318 319 319 320 320 321 324 328 331 336 340 339 341 341 342 340 339 339 335 334 329 335 336 335 332 325 318 310 307 308 309 310 312 315 318 321 321 322 317 315 317 316 315 314 312
316 317 318 320 318 319 319 319 318 323 324 327 329 334 340 338 339 340 343 340 341 339 335 335 326 330 330 327 324 317 310 307 308 310 311 311 314 317 318 321 321 320 317 317 316 315 314 312 310
318 317 319 319 319 319 319 322 325 325 326 330 332 332 340 336 337 338 340 340 339 339 338 331 327 327 325 322 315 310 307 308 310 311 311 315 316 315 316 318 318 317 317 316 315 314 312 312 311
318 319 319 318 319 320 322 327 331 333 331 331 334 336 338 337 336 337 339 340 338 338 336 329 328 325 321 314 310 308 309 311 312 311 313 317 315 315 316 316 316 316 315 316 315 315 316 315 313
317 319 319 319 321 322 325 328 331 332 332 333 334 336 336 334 335 336 335 336 337 336 334 328 326 323 321 321 314 318 319 315 311 313 316 316 314 315 315 315 315 315 317 317 317 318 317 316 314
317 320 319 319 320 322 323 326 332 333 332 333 337 338 335 333 334 335 335 335 335 334 332 329 327 325 319 317 315 317 315 311 311 317 317 315 314 315 318 315 316 317 318 318 318 318 318 317 315
319 321 320 321 321 322 322 326 331 332 331 333 334 332 332 332 332 332 333 334 333 331 330 326 327 324 314 311 315 313 317 315 314 315 315 318 318 323 319 316 317 318 319 318 319 319 318 318 316
320 320 321 320 320 320 322 327 329 330 328 332 334 330 330 330 329 330 330 332 330 329 327 327 323 317 315 317 315 314 317 316 315 316 316 316 322 323 318 317 318 318 319 318 319 319 319 318 317
320 320 320 320 320 322 327 327 329 329 332 334 331 329 329 330 327 327 328 327 327 325 325 321 319 316 315 316 315 314 316 315 316 315 317 321 322 320 319 321 321 320 320 319 319 320 320 319 318
320 320 320 321 322 326 326 327 328 331 334 333 329 329 330 330 326 326 326 321 321 321 319 319 317 318 319 319 317 317 319 315 316 318 321 317 320 323 323 324 323 322 322 321 321 320 319 319 317
321 320 321 322 324 323 326 327 328 333 335 333 332 331 330 330 328 324 322 320 318 318 318 317 318 318 318 315 315 313 314 315 317 318 315 316 322 322 323 324 323 323 322 322 320 319 318 317 315
320 321 323 323 324 324 325 326 329 333 334 333 332 329 329 329 326 326 322 320 319 318 318 318 317 315 315 312 312 313 313 317 319 314 315 322 322 318 322 323 324 323 323 321 320 319 317 316 313
319 321 321 323 325 325 325 326 331 331 333 331 329 329 328 329 326 326 325 322 319 318 318 317 316 314 314 315 314 315 319 315 313 319 321 322 322 323 324 324 324 323 322 321 319 318 318 316 313
320 319 322 324 324 326 326 327 330 329 331 329 329 329 328 328 327 326 324 322 321 320 319 319 318 316 317 319 318 320 319 317 317 321 324 325 325 324 325 325 324 322 322 320 319 318 318 315 311
320 320 321 320 325 324 326 326 329 328 329 329 328 328 327 328 328 326 325 323 323 323 324 322 321 319 321 321 317 321 321 320 321 324 325 325 326 325 323 325 324 322 321 320 319 318 316 314 312
320 320 320 322 324 324 326 325 327 329 329 329 328 328 327 328 328 327 326 325 324 325 325 325 325 324 324 324 322 319 321 322 323 324 326 325 326 322 323 325 323 321 321 320 319 317 315 312 310
320 321 321 323 322 323 323 324 323 328 329 327 328 328 327 327 328 327 326 326 326 326 325 326 325 325 325 325 324 321 319 321 322 324 326 326 325 325 323 324 322 320 321 320 318 317 314 313 311
320 322 322 323 324 322 321 321 322 323 326 327 326 326 326 327 328 328 326 326 326 326 326 326 327 328 327 327 326 323 321 321 322 324 326 326 325 325 323 322 322 321 320 319 318 317 314 313 311
321 321 322 321 322 321 323 321 324 323 325 328 327 325 325 326 328 328 329 327 326 326 327 327 327 326 327 327 327 325 323 321 323 324 325 327 323 323 324 321 321 320 320 319 318 316 314 313 312
322 322 322 321 323 323 324 323 324 323 323 325 328 327 326 326 326 328 329 329 329 327 326 327 327 326 326 328 327 328 325 323 324 325 326 326 325 324 324 322 321 321 320 319 317 315 314 311 311
322 322 322 323 323 325 323 324 323 324 322 323 324 325 327 326 326 327 328 329 329 329 329 327 327 327 327 328 328 328 327 325 323 325 326 326 326 324 323 323 323 321 319 319 317 315 313 311 310
322 322 325 325 325 326 324 323 322 324 323 322 323 323 325 326 327 327 327 329 330 331 331 330 329 327 327 328 329 329 329 328 326 325 328 326 325 323 322 323 323 322 320 318 315 313 311 310 308
323 323 326 329 328 326 325 323 322 324 322 322 322 323 324 324 327 327 328 328 330 332 333 332 331 330 328 329 329 330 330 330 329 328 327 327 326 325 322 323 324 322 320 318 314 311 312 309 306
324 324 323 324 327 327 326 323 325 323 321 322 322 324 325 325 324 326 328 329 330 332 333 334 333 332 331 329 327 324 330 331 330 328 328 327 327 325 324 325 324 321 319 316 315 312 311 305 305
322 324 324 325 327 328 323 323 323 322 321 320 321 322 325 326 324 325 327 328 330 331 334 335 336 334 333 331 329 328 331 329 327 327 327 326 326 325 324 324 323 321 320 317 315 312 307 304 305
323 325 324 324 325 328 326 325 322 321 321 321 321 321 321 325 327 326 326 327 328 330 333 336 336 335 334 333 333 332 329 327 327 326 327 326 325 325 324 323 321 321 318 313 312 307 304 304 303
323 323 324 326 326 325 325 325 322 322 322 321 321 321 321 322 326 328 328 328 328 330 332 334 334 334 333 333 332 331 330 330 329 327 327 326 324 322 322 322 321 316 312 309 307 305 303 303 303

GFSSGP_850_thetae_054.txt.gz
Theta_e
315 318 318 319 319 319 319 318 320 320 323 329 331 327 334 331 333 340 341 332 329 334 334 340 341 341 338 335 335 334 333 332 330 322 313 309 310 311 324 321 319 317 314 314 316 314 313 312 310
316 321 317 317 319 320 318 320 322 323 327 329 326 324 328 336 330 337 338 339 336 340 336 339 340 340 339 336 335 333 333 332 325 317 309 309 309 322 325 325 320 316 314 316 315 313 312 312 311
315 318 318 320 321 320 320 320 321 322 322 326 329 331 336 334 330 334 342 341 339 334 336 336 338 340 339 337 335 334 333 328 320 310 308 308 311 323 325 326 320 315 315 315 315 313 312 311 311
319 318 318 319 317 318 319 320 320 320 320 324 326 333 333 335 339 337 339 339 340 338 335 335 335 339 339 337 335 334 331 322 312 308 308 309 313 318 323 324 321 315 315 316 315 313 312 310 310
318 317 319 319 319 320 319 319 319 319 321 324 325 332 333 335 338 341 342 336 333 335 334 335 333 337 337 336 334 333 324 314 308 308 309 312 316 319 321 321 320 315 316 315 314 311 310 309 309
318 319 319 319 320 320 320 323 325 326 325 324 327 330 335 333 337 338 341 340 334 334 334 335 334 337 336 335 333 325 316 308 308 310 312 314 318 320 320 319 317 316 315 315 313 313 312 310 308
318 319 319 319 319 322 322 322 324 330 330 332 331 331 336 334 334 337 337 339 337 335 336 333 336 336 334 332 325 315 309 308 310 312 314 317 319 319 319 318 316 316 315 315 316 316 313 311 309
318 318 319 319 320 323 323 323 329 330 326 325 335 331 324 332 334 335 336 337 337 336 336 330 328 328 327 326 320 317 318 313 312 314 318 317 318 319 318 317 316 315 316 317 318 317 315 312 310
317 318 320 321 321 323 323 324 324 327 331 327 335 333 331 333 333 334 334 334 334 335 335 330 326 326 326 324 317 315 318 314 314 318 318 318 318 318 317 316 316 317 318 318 318 318 317 314 311
318 319 321 321 321 320 321 323 329 329 327 325 322 331 331 332 333 333 332 333 332 332 332 328 326 325 325 323 319 313 319 319 319 318 317 316 317 317 316 315 317 318 318 318 319 318 318 317 316
319 320 321 321 321 321 322 322 323 323 329 330 324 329 329 330 330 329 329 330 331 330 329 326 325 324 321 318 314 317 316 316 318 317 316 319 318 319 316 317 317 318 318 318 319 319 319 318 317
319 319 320 320 321 321 324 326 324 326 336 332 329 331 330 330 327 326 327 327 328 328 327 327 323 321 319 317 315 314 316 317 320 320 320 319 315 322 316 317 317 318 319 318 320 320 319 319 318
319 320 320 321 321 323 324 326 325 334 334 331 330 331 331 328 326 326 326 326 326 326 325 323 322 319 316 314 317 316 315 315 317 319 316 316 322 321 317 318 318 319 320 320 321 320 319 319 318
320 320 320 320 322 323 323 325 325 326 333 331 332 331 331 328 326 324 323 322 321 322 320 319 318 315 317 317 315 315 317 319 316 316 317 320 321 322 322 323 323 322 322 321 321 320 319 318 317
319 319 320 322 322 323 324 323 323 320 326 333 331 328 330 327 325 321 323 321 320 321 319 318 316 316 318 316 318 317 317 317 315 315 318 320 321 322 323 324 323 323 323 322 321 320 319 318 315
320 319 319 323 323 324 325 327 325 322 326 332 329 328 329 326 327 323 321 320 319 320 319 318 318 319 319 318 318 317 315 314 314 315 315 317 322 322 321 322 324 324 323 323 321 320 319 317 314
320 320 320 323 323 325 327 327 324 326 327 329 328 328 329 327 327 325 321 320 319 319 318 318 318 318 317 315 314 312 313 314 316 312 316 312 315 322 321 324 324 324 323 322 321 320 318 317 315
321 321 321 320 324 324 324 329 322 329 329 328 329 328 328 327 327 326 324 321 320 318 317 315 314 314 314 313 313 313 313 314 312 313 319 321 320 320 322 324 324 323 323 322 320 319 319 318 315
322 321 320 323 324 324 326 326 327 325 328 327 328 327 328 328 327 325 323 321 320 319 319 317 316 315 318 317 314 318 321 320 317 319 320 324 322 321 321 322 325 323 323 321 321 320 318 318 314
321 321 321 322 324 322 321 323 328 328 329 328 327 327 327 328 328 327 324 322 322 323 321 320 318 316 318 319 319 317 321 321 318 320 325 323 323 322 323 323 323 323 322 322 321 320 319 318 314
320 320 320 323 323 323 321 321 321 327 327 327 327 328 327 328 329 327 326 324 323 325 325 323 322 322 321 321 323 322 320 319 321 322 324 323 326 324 324 322 324 323 321 321 320 320 319 317 313
321 320 321 323 323 322 323 322 321 323 325 327 326 327 327 328 329 328 327 327 325 326 325 326 325 325 325 322 325 325 322 320 321 321 323 324 325 324 324 324 324 324 322 321 320 320 319 316 313
322 323 323 321 321 322 323 324 323 323 323 326 327 326 326 327 329 329 327 327 327 327 326 326 326 326 325 326 324 326 324 322 321 322 323 325 326 324 323 325 324 323 322 321 320 319 319 318 316
322 322 323 322 322 325 322 323 325 324 324 324 326 326 325 326 328 329 329 326 327 326 327 326 327 327 326 328 326 327 327 325 323 322 324 325 325 326 324 324 324 323 323 322 320 319 317 317 313
322 322 325 326 326 328 324 324 325 324 324 323 324 325 326 326 326 328 329 329 328 327 326 327 327 327 327 327 327 328 327 328 326 324 324 325 325 325 324 324 322 323 323 323 321 319 316 315 314
323 323 327 328 331 328 326 326 324 323 323 323 322 322 324 326 326 327 328 330 330 330 329 328 327 328 328 327 327 328 326 327 327 326 324 327 327 327 325 324 323 321 322 321 319 317 315 314 312
324 323 323 326 327 331 329 324 324 324 323 321 322 322 323 324 327 327 327 328 330 330 330 330 330 329 328 328 327 324 323 325 326 326 327 325 326 327 326 325 325 323 322 321 319 317 315 314 312
321 324 325 325 329 330 326 325 325 324 322 321 321 322 324 326 325 325 327 328 329 330 331 331 331 331 331 328 327 327 323 325 323 324 328 329 327 326 326 326 324 324 322 321 318 315 314 312 311
321 323 326 326 325 329 329 327 324 324 323 321 322 321 321 324 326 325 325 327 329 330 333 333 333 333 333 332 329 329 327 325 324 329 330 328 327 327 325 324 324 323 322 319 316 316 314 311 309
321 323 324 328 326 328 330 327 323 324 323 322 322 321 321 322 326 327 326 327 328 330 332 333 334 335 334 332 331 331 330 329 330 328 329 327 326 324 323 321 321 320 319 318 315 313 310 308 305

GFSSGP_850_thetae_057.txt.gz
Theta_e
314 319 320 320 315 311 313 315 315 319 327 330 327 327 332 330 334 340 335 334 332 329 330 334 339 337 331 331 331 332 331 330 324 317 310 310 311 313 313 317 315 312 313 314 312 310 312 319 321
314 319 321 321 313 312 314 315 316 320 329 328 327 326 334 333 329 340 339 334 329 329 328 327 339 339 333 332 331 332 331 329 321 312 310 310 314 315 318 317 313 314 313 312 312 311 312 320 321
315 317 318 312 313 315 314 316 318 320 321 327 329 335 331 329 326 331 340 338 334 336 337 338 339 336 334 333 332 331 330 325 318 309 309 316 321 320 319 315 314 314 313 313 312 310 313 318 321
318 318 318 314 314 314 315 315 316 317 319 322 330 333 332 335 331 327 336 340 336 334 330 338 339 337 336 333 332 332 330 323 312 308 309 323 324 323 318 314 314 314 314 313 311 309 313 319 319
320 320 312 314 314 316 317 321 320 323 326 330 329 332 327 329 336 333 334 338 338 337 336 336 337 335 329 334 333 331 326 319 309 308 311 325 323 325 318 314 314 315 314 312 310 309 312 318 318
318 318 313 315 316 318 322 322 324 327 326 330 329 332 330 334 331 334 335 336 336 337 336 336 335 332 331 332 332 328 321 312 308 309 312 320 323 324 318 314 315 315 313 312 311 309 309 317 317
315 312 312 313 315 320 322 324 327 325 329 323 331 332 326 323 332 331 333 336 336 334 334 335 335 335 336 334 333 328 313 309 309 311 317 323 324 321 318 315 315 314 314 315 313 310 309 310 315
318 311 312 313 316 321 321 323 327 327 328 330 332 326 326 325 332 332 333 337 335 333 334 335 334 333 334 330 323 319 317 309 310 312 318 321 322 319 318 316 315 315 317 317 315 312 310 310 313
317 312 312 314 318 321 322 325 324 327 325 328 330 327 327 328 332 333 333 335 335 335 335 334 334 334 331 329 326 317 311 312 313 317 320 321 321 320 319 316 316 316 318 318 317 313 311 310 312
314 311 314 317 318 318 322 325 328 327 324 327 330 330 331 330 331 331 330 331 334 335 334 333 331 332 330 326 324 314 311 316 318 320 320 321 320 318 318 316 316 318 318 318 317 317 316 315 312
316 313 315 317 321 321 321 324 325 324 328 326 326 329 329 330 328 331 332 334 333 332 330 330 329 328 328 324 322 315 310 313 320 321 321 318 315 317 316 316 317 318 318 319 318 318 318 317 315
315 317 318 318 320 321 323 325 326 323 325 330 328 329 329 327 327 327 328 330 332 330 330 327 327 325 326 322 316 316 313 318 318 318 317 314 315 315 316 317 318 318 318 319 319 319 319 318 317
317 317 319 320 320 322 326 328 326 321 324 330 330 330 328 326 324 324 325 328 329 328 327 325 325 324 320 316 314 315 318 319 318 318 316 315 317 317 316 317 317 318 318 319 320 320 319 319 318
319 319 318 319 319 321 324 324 325 325 322 329 330 330 329 326 324 322 323 324 324 323 323 325 323 322 320 317 315 318 321 321 319 315 318 316 316 319 317 317 318 319 320 321 321 320 320 319 318
320 317 317 317 321 321 322 323 323 323 327 330 331 330 329 325 323 321 321 321 322 322 323 322 322 320 316 316 315 315 315 316 315 318 316 315 320 320 322 323 323 322 322 322 321 321 319 318 318
317 317 317 316 320 323 323 325 324 322 325 329 330 329 327 326 324 322 321 320 320 321 321 320 318 318 316 314 314 315 314 316 314 316 317 319 321 321 323 323 324 323 322 322 322 321 320 318 318
316 316 316 317 320 323 323 326 324 325 323 326 329 329 326 327 324 322 321 319 320 319 319 318 315 316 315 317 316 316 316 317 317 316 315 317 318 318 322 322 322 323 323 323 322 322 320 319 317
319 319 316 316 320 324 325 325 322 323 328 327 327 329 327 326 326 322 320 319 319 319 318 317 316 318 317 317 316 315 317 316 314 314 315 315 314 317 319 320 322 324 323 323 323 321 320 319 317
318 320 318 318 323 322 325 325 322 322 326 327 327 328 327 327 326 323 320 320 319 318 317 318 319 319 318 318 317 314 314 313 314 315 313 312 313 314 315 318 322 324 323 322 322 321 320 319 318
322 320 318 318 322 321 320 326 323 323 325 326 326 327 327 326 325 324 321 319 318 316 315 316 316 316 317 316 314 314 314 314 315 314 311 317 319 321 320 317 321 322 322 323 322 320 320 320 319
321 319 318 319 322 321 320 319 327 325 324 325 326 327 327 327 325 324 323 319 318 318 316 315 315 315 315 313 313 314 316 314 316 313 316 321 320 322 322 321 321 321 322 323 322 320 320 320 319
320 320 319 319 321 321 318 319 320 327 324 327 327 326 327 327 327 325 323 321 321 321 319 316 316 316 316 315 314 314 314 319 320 318 316 319 323 322 321 322 322 322 322 323 322 321 320 320 319
320 322 322 322 320 318 319 319 319 325 326 327 326 326 327 327 327 327 325 322 322 323 324 322 319 317 318 319 320 320 321 321 319 319 320 320 322 324 323 324 323 322 323 323 323 321 321 320 318
321 321 322 321 319 320 320 319 319 320 321 325 324 325 326 328 328 328 328 325 323 323 324 325 324 322 322 322 321 324 326 324 322 320 321 321 321 324 324 324 324 322 324 324 323 322 321 320 318
320 320 321 322 322 320 323 324 321 320 322 322 324 324 326 327 328 328 327 326 325 324 326 326 325 325 325 324 324 323 323 326 325 322 321 321 322 323 325 325 325 324 323 323 323 322 321 319 317
320 320 322 324 326 323 326 325 323 321 322 322 322 324 325 326 328 328 328 328 327 325 325 327 326 325 326 326 325 327 324 325 326 326 324 322 323 323 324 324 325 324 322 321 323 322 320 319 316
323 321 320 322 327 325 326 326 322 321 320 320 320 322 322 325 327 328 328 328 328 327 326 325 326 326 326 327 326 327 327 326 326 326 326 324 324 325 325 325 325 324 323 323 322 321 320 318 316
320 321 323 321 326 327 325 324 322 322 322 318 319 320 321 325 326 327 329 329 329 328 328 328 327 326 326 326 326 326 327 327 327 327 327 325 322 324 324 325 325 324 324 324 322 321 319 317 315
320 320 321 323 323 325 324 322 322 321 321 319 318 320 324 325 325 325 326 328 329 329 329 329 328 327 327 327 326 327 327 327 327 326 326 325 325 327 326 325 324 324 324 322 321 321 319 316 314
320 319 320 324 326 323 322 323 321 320 319 320 319 320 321 322 325 323 324 326 327 329 329 329 329 329 329 329 328 328 328 327 327 324 325 325 326 328 326 325 322 321 320 321 320 319 317 314 312

GFSSGP_850_thetae_063.txt.gz
Theta_e
313 316 320 319 310 309 313 312 312 313 315 326 328 328 330 330 334 330 334 338 339 339 337 334 330 327 328 328 328 324 323 324 315 314 317 316 318 314 316 320 317 312 310 311 314 317 319 318 314
314 315 319 318 309 310 310 310 313 312 316 328 330 332 329 329 336 337 336 335 338 338 338 336 333 330 328 327 327 324 322 321 314 312 315 318 314 317 317 313 310 310 313 315 316 318 322 322 319
314 315 317 310 306 311 312 312 314 320 329 327 333 330 329 328 331 334 335 337 338 336 337 337 334 329 326 325 328 327 321 323 314 313 315 314 316 315 312 311 312 313 316 318 318 320 321 320 320
318 318 314 311 312 311 313 314 312 321 326 329 331 330 331 330 330 330 333 337 335 334 329 332 329 328 326 327 330 328 323 315 314 315 313 316 314 312 312 312 311 313 318 320 319 320 320 320 319
318 318 309 310 311 312 311 314 324 325 327 326 329 326 326 330 334 332 332 334 330 331 334 335 328 330 328 330 329 325 323 316 313 314 316 314 312 313 311 311 311 314 319 320 320 320 320 320 319
316 313 311 312 312 312 311 323 323 325 326 326 329 329 329 330 330 334 335 335 333 332 332 333 329 328 326 334 327 326 327 320 317 316 315 313 314 312 312 311 311 315 319 319 319 319 320 320 318
312 309 312 311 312 312 316 324 325 325 325 327 330 331 329 326 325 333 334 337 335 332 334 335 334 333 333 331 329 329 325 319 323 317 316 314 313 313 312 311 310 316 319 317 317 319 320 320 319
316 309 313 310 312 312 318 325 326 325 327 330 330 329 326 323 328 332 333 326 326 327 326 333 334 334 325 327 327 324 324 319 327 320 316 314 314 313 312 310 309 311 318 316 316 316 317 316 316
316 310 310 311 312 313 321 323 325 325 324 330 329 327 327 325 330 332 336 332 329 331 329 333 333 330 329 330 325 322 318 322 324 324 316 315 315 314 312 312 310 309 315 315 315 315 316 315 315
311 308 311 310 311 313 322 325 326 326 326 328 328 327 328 328 330 331 330 331 333 334 333 333 332 329 330 327 326 325 323 320 322 324 320 314 315 313 314 315 314 310 309 310 314 315 315 314 313
311 311 311 313 314 314 323 324 324 326 325 326 327 327 328 329 329 328 329 329 331 333 334 333 332 332 330 329 325 325 323 321 322 319 322 315 315 314 316 317 316 314 312 310 311 313 312 311 311
313 312 313 315 316 317 321 324 325 326 323 323 326 327 328 328 328 327 329 329 331 331 333 332 333 330 330 328 327 323 318 315 318 320 322 316 315 315 317 318 318 317 316 316 314 312 312 312 310
312 314 317 318 317 318 323 324 322 322 323 328 327 327 327 327 326 326 327 328 329 330 330 330 330 330 329 327 327 318 312 317 321 322 320 319 316 316 317 318 318 318 318 318 318 318 318 318 316
316 317 316 317 317 324 325 324 324 322 328 328 328 328 327 325 326 324 325 326 326 328 327 328 325 327 327 324 319 313 318 321 323 322 321 319 316 317 317 318 318 318 318 318 319 319 319 319 318
317 315 313 314 316 321 322 322 322 322 328 328 329 328 327 327 327 320 323 324 324 325 326 327 326 326 324 321 317 317 317 315 319 321 321 319 316 316 317 317 317 318 318 319 319 319 320 319 318
315 314 314 314 315 317 319 317 319 323 325 329 329 329 327 328 325 321 321 321 323 324 325 326 326 326 325 323 322 317 318 322 321 318 320 318 315 315 316 316 316 316 318 319 320 321 320 320 319
312 312 314 315 315 316 318 318 319 323 323 327 329 329 328 328 324 322 321 321 321 321 322 324 324 324 323 321 319 321 324 319 317 320 316 315 315 315 316 316 316 317 319 321 321 321 321 321 320
313 314 315 315 314 319 320 319 321 323 325 328 328 329 328 329 325 322 321 319 320 320 321 322 323 323 323 319 319 319 316 320 321 319 316 317 316 316 316 316 318 321 322 322 322 322 322 321 321
314 315 314 313 314 321 320 319 319 320 324 324 327 328 328 328 325 323 321 320 320 319 319 320 322 322 320 317 316 319 320 320 320 318 315 315 316 319 319 318 320 321 321 321 322 322 322 322 321
314 314 314 314 315 319 318 320 320 320 322 322 325 328 328 327 325 323 320 320 319 318 318 318 319 320 319 317 315 315 320 318 319 316 316 314 316 318 321 320 319 320 319 320 322 323 323 322 321
314 314 314 315 315 316 319 319 321 320 321 323 325 327 328 327 326 324 319 319 320 318 318 319 320 319 317 317 318 320 319 317 316 316 315 315 315 320 320 319 320 318 315 316 318 320 322 322 322
315 315 316 316 316 317 317 318 315 320 322 322 324 325 326 327 327 325 322 318 318 317 318 319 319 317 316 316 316 318 319 316 315 315 315 315 317 316 315 314 313 315 320 318 315 318 320 322 322
316 316 317 317 316 316 316 315 314 321 324 323 321 324 326 326 327 327 325 318 317 317 316 318 318 317 316 315 316 316 316 315 315 314 316 315 315 316 315 312 312 315 316 321 322 321 321 321 321
317 318 318 317 316 319 317 315 315 321 322 322 322 323 325 325 327 327 326 323 318 317 316 317 318 318 318 317 317 317 317 316 315 316 316 315 315 315 315 315 313 315 318 321 322 322 321 320 321
316 317 318 319 319 320 317 317 318 315 318 320 321 322 324 326 326 327 326 325 320 317 317 315 318 318 318 318 318 317 317 316 316 316 316 315 314 314 314 314 312 318 320 322 323 322 323 323 322
316 316 318 322 320 319 319 322 320 317 317 318 320 322 323 324 325 326 327 326 325 320 317 316 316 316 316 316 316 316 316 316 315 314 314 314 314 314 313 313 313 314 318 321 323 323 322 318 322
317 317 317 318 319 321 321 321 318 318 318 317 318 321 323 324 325 326 326 326 326 325 319 318 316 315 315 314 313 312 312 314 314 314 314 314 314 314 317 318 319 320 321 321 322 323 320 318 321
317 317 319 318 321 323 320 321 319 318 318 318 316 319 323 324 324 325 325 325 326 326 326 319 318 317 316 315 314 314 313 312 313 313 313 314 316 320 323 323 322 321 321 321 322 319 321 322 323
317 317 319 319 318 321 321 319 315 317 318 317 316 318 322 324 324 324 325 325 326 325 325 325 320 319 319 317 316 315 314 314 314 315 317 319 320 322 323 324 324 324 323 320 323 323 323 325 322
316 318 319 321 322 319 318 321 316 316 316 315 315 318 319 320 324 325 325 325 325 326 325 325 325 321 320 321 320 318 317 317 318 320 321 322 323 324 324 320 323 324 324 323 323 323 322 322 322

GFSSGP_850_thetae_066.txt.gz
Theta_e
313 317 318 318 310 307 312 312 311 312 313 323 328 326 327 329 331 327 334 337 338 337 336 331 327 329 330 329 327 328 329 324 325 333 329 325 322 318 318 327 328 328 325 313 310 309 309 310 309
313 315 318 316 308 310 310 309 312 314 324 327 331 332 328 330 335 336 334 337 338 340 337 328 327 329 329 329 328 325 324 327 330 328 326 323 319 312 322 328 325 317 312 318 318 314 313 312 309
315 315 316 307 305 311 310 311 311 313 319 327 332 330 329 327 332 336 337 334 339 340 335 329 327 328 328 326 327 327 327 320 319 316 322 320 315 319 321 316 311 311 318 325 326 318 317 314 310
318 317 313 311 312 310 312 312 311 313 323 328 331 328 329 326 328 332 335 337 338 339 338 334 329 327 329 328 326 328 329 324 316 312 320 316 317 319 311 311 311 313 315 318 319 319 313 307 307
318 316 309 310 311 311 309 312 316 324 324 325 328 326 326 328 329 332 332 336 337 339 337 335 330 330 330 327 327 327 330 327 315 312 316 315 312 318 313 314 314 313 317 319 319 318 317 316 310
315 312 310 311 311 311 310 313 323 323 325 324 328 325 328 326 329 332 333 334 334 335 334 334 333 331 329 327 327 330 328 323 319 311 315 313 313 316 321 315 314 315 316 319 320 319 318 314 312
312 308 310 311 312 312 312 322 323 322 325 324 328 330 329 329 325 329 332 335 332 332 332 332 332 330 328 329 329 330 324 322 319 314 315 312 314 317 315 315 316 315 318 319 319 319 318 315 314
316 308 312 310 312 311 313 323 327 324 324 327 329 327 326 325 325 328 335 336 334 334 332 332 332 331 329 331 330 327 325 323 312 315 314 314 312 312 314 319 317 318 318 318 319 319 318 315 313
314 309 309 312 310 312 315 321 324 325 326 326 329 328 327 326 329 332 332 330 328 330 324 328 330 329 328 328 327 328 325 320 318 315 314 313 312 312 314 318 318 317 316 317 318 318 316 314 313
310 308 310 309 309 312 312 319 324 324 325 326 328 327 327 328 329 330 330 332 331 331 331 331 322 330 328 327 325 328 325 320 318 316 315 313 312 310 311 316 317 317 316 315 316 315 315 313 312
309 310 309 311 313 313 313 323 325 324 325 326 325 326 328 328 327 329 329 330 333 332 332 332 330 330 326 325 325 325 322 320 321 318 315 314 312 309 308 310 315 316 316 315 315 314 313 312 311
312 311 312 313 315 315 317 322 323 324 324 323 324 326 327 328 327 327 328 329 330 329 328 331 331 330 329 329 324 323 323 322 320 320 316 314 312 313 310 309 309 310 311 311 312 313 311 311 311
311 312 315 317 317 315 319 322 322 322 324 324 326 327 327 327 326 326 326 328 328 330 330 330 330 330 329 326 325 325 322 321 321 321 316 314 314 315 314 313 310 310 310 310 311 311 313 311 310
314 314 315 315 316 320 322 323 324 323 322 324 327 327 327 326 325 325 324 327 325 327 329 327 329 328 329 327 325 323 321 320 322 321 317 315 314 316 317 316 315 314 315 317 316 317 318 318 315
316 314 312 312 314 318 323 321 322 323 321 326 327 327 326 326 325 324 322 324 324 323 327 326 328 328 328 326 325 323 322 321 320 320 321 316 315 317 318 318 318 317 318 318 318 319 318 318 318
314 313 313 312 313 316 320 317 314 320 323 326 327 328 327 326 326 323 321 322 323 324 324 325 326 326 327 325 325 323 320 315 319 322 322 316 315 316 318 318 318 318 318 319 319 319 319 319 318
311 312 312 312 313 316 317 316 317 321 325 325 327 327 327 327 326 324 321 320 321 322 323 324 325 325 326 324 320 317 314 319 317 322 321 318 316 317 317 317 317 317 317 318 319 320 320 320 320
313 313 312 313 314 314 316 317 315 321 322 323 326 327 327 328 327 324 321 320 320 321 321 322 324 324 324 324 323 317 321 320 317 322 321 321 316 316 316 316 316 316 315 317 320 321 321 321 321
312 313 314 312 312 315 315 317 316 318 322 323 326 327 327 328 328 324 321 319 318 319 320 320 322 323 323 324 322 323 319 316 322 321 321 318 316 315 316 316 316 316 315 319 320 321 322 322 322
314 314 313 312 313 313 314 315 315 317 320 323 324 326 327 328 327 325 321 321 318 318 319 319 321 322 322 323 321 319 320 322 320 317 316 318 316 315 316 316 316 316 317 320 322 322 322 322 322
313 313 313 312 312 313 315 316 316 318 319 321 324 324 326 327 327 326 323 319 319 318 317 318 318 320 321 320 319 320 319 320 321 317 317 316 316 317 317 317 318 317 320 321 320 320 319 321 322
314 312 313 314 314 316 315 317 314 314 318 319 321 322 322 324 327 327 325 321 318 318 317 318 318 319 320 319 317 317 319 319 320 317 319 316 316 316 316 317 320 320 321 320 315 316 317 320 321
314 313 313 314 315 315 315 314 314 319 318 319 319 321 323 323 325 326 327 325 319 317 317 317 319 319 319 318 317 317 318 318 319 319 316 315 315 315 315 318 319 317 315 313 314 318 321 320 319
315 316 316 316 315 317 316 314 314 313 319 318 319 321 322 323 324 325 326 326 324 318 317 317 318 319 318 316 316 316 316 319 318 318 317 316 316 316 315 315 316 313 312 312 314 317 320 321 321
315 316 318 319 319 320 315 314 317 315 314 316 316 320 321 323 323 324 326 326 326 322 317 317 316 318 318 317 316 316 318 319 319 317 316 315 315 315 315 315 316 315 315 314 313 318 320 321 322
315 316 317 322 321 319 316 319 318 316 314 316 317 318 320 322 323 324 324 326 326 326 321 316 316 316 317 318 317 316 316 315 316 317 317 316 315 315 316 316 315 315 315 314 313 313 316 319 319
317 316 315 317 317 319 318 319 318 317 316 315 316 318 319 321 322 323 323 325 326 326 325 322 316 315 316 317 317 317 316 316 316 317 316 315 315 316 316 315 315 314 314 314 318 319 319 319 321
316 315 318 316 321 322 318 320 318 318 317 315 315 315 319 321 322 323 323 324 325 326 326 325 321 317 315 316 316 317 317 317 317 317 316 316 316 316 315 315 314 314 314 318 321 321 320 321 318
316 316 317 317 316 319 319 318 315 316 316 316 315 318 318 321 323 323 323 324 324 325 326 326 325 322 318 316 315 315 315 315 316 315 315 315 315 314 314 314 314 315 322 323 322 322 322 321 320
315 316 317 318 318 317 316 319 315 314 314 314 315 319 317 319 322 322 323 324 324 324 325 325 325 325 323 319 318 316 315 314 314 314 314 314 313 314 315 316 321 321 322 322 324 324 322 320 322

GFSSGP_850_thetae_069.txt.gz
Theta_e
313 317 318 317 316 315 317 317 314 316 319 318 327 327 327 329 330 331 333 338 339 335 333 331 331 330 331 329 327 330 334 334 335 332 329 324 321 322 321 322 329 329 328 322 327 328 326 318 317
313 315 317 315 317 317 317 314 315 316 320 326 329 332 331 330 333 334 337 338 339 336 335 332 329 330 330 328 329 330 331 333 332 332 328 324 322 321 320 328 329 328 321 315 321 320 311 310 310
314 315 316 315 314 317 317 314 316 314 315 326 329 330 330 329 331 335 335 337 338 338 335 331 330 330 329 329 329 329 330 327 330 332 328 324 322 321 326 330 329 321 311 312 312 310 309 310 308
318 316 313 317 317 316 316 317 314 315 323 327 330 331 329 328 328 333 335 335 336 341 333 332 329 331 329 327 328 327 324 327 332 330 326 324 321 320 327 328 319 321 325 324 314 312 307 307 306
318 316 316 316 315 314 313 313 313 321 324 326 328 328 326 327 327 329 330 333 335 339 334 331 330 330 329 327 327 326 324 324 323 319 317 321 315 322 326 325 325 327 327 323 311 307 307 306 306
316 313 317 317 315 314 314 313 318 323 324 325 327 327 327 325 327 331 329 331 332 338 336 331 330 329 327 327 327 327 324 324 320 321 319 317 317 324 324 323 319 319 320 318 313 313 308 307 307
316 315 315 314 315 315 315 320 323 323 324 325 327 330 329 329 328 328 330 332 333 337 335 333 331 328 328 328 327 327 328 328 319 317 320 315 321 321 323 318 317 319 319 318 317 311 311 310 308
315 315 314 315 316 316 314 322 323 325 325 325 327 329 328 325 324 324 327 335 334 332 333 333 331 329 329 329 327 327 328 327 323 323 320 316 321 322 320 317 318 319 320 319 317 314 313 311 310
314 316 317 316 314 316 313 318 321 324 325 326 327 328 327 327 326 330 333 334 332 331 331 329 331 330 330 330 328 329 328 323 320 322 321 315 322 322 316 317 318 319 319 319 318 315 313 311 310
314 316 316 314 313 315 315 313 319 324 325 325 328 327 326 327 328 329 330 330 328 327 329 329 327 328 327 330 329 326 322 321 318 320 321 314 316 315 315 318 318 317 319 320 318 315 313 311 310
311 316 313 313 313 312 313 318 323 325 325 325 326 324 324 327 328 329 328 328 330 330 329 329 328 324 325 326 323 324 323 322 318 320 318 315 312 317 318 317 316 317 319 319 316 314 312 311 310
314 313 313 313 314 314 315 319 323 324 323 322 323 325 326 326 327 328 328 328 330 331 331 330 330 325 326 328 326 327 324 321 321 318 315 313 313 317 317 317 316 315 315 315 314 313 312 311 310
312 313 312 313 314 315 315 319 321 322 322 323 324 325 326 327 326 326 326 327 329 330 328 330 328 328 328 327 326 326 322 318 317 319 314 312 311 311 316 316 316 315 315 314 313 311 311 311 310
313 312 314 315 315 315 318 320 323 322 322 323 325 327 326 326 325 325 323 326 327 327 328 328 328 330 329 327 326 325 324 318 317 318 314 312 311 309 309 312 314 313 313 312 311 311 311 310 310
314 316 315 315 314 316 321 322 325 321 322 324 326 327 326 326 325 325 321 324 325 325 327 327 326 328 328 327 324 323 320 321 319 318 315 312 313 312 310 309 310 311 311 311 313 317 318 317 312
315 314 316 314 315 317 320 321 320 317 323 326 327 327 327 326 325 325 321 321 324 323 324 326 326 327 327 326 322 322 322 321 320 318 316 314 314 314 314 311 310 312 317 317 318 318 318 318 317
313 316 314 314 314 320 319 319 317 319 323 324 326 327 327 326 325 326 322 321 321 324 324 325 323 325 326 325 325 323 323 322 322 316 316 314 313 315 315 314 315 317 318 318 319 319 319 319 319
313 315 314 316 316 316 318 318 318 317 322 324 325 327 326 326 326 326 323 320 320 323 324 324 325 325 325 325 325 324 323 321 321 321 320 316 314 316 317 317 317 318 318 319 319 320 320 320 320
314 314 315 314 314 314 316 317 319 317 321 323 323 325 327 325 326 327 325 320 320 320 321 323 324 324 324 325 325 325 323 319 320 319 319 318 315 315 317 318 318 318 317 317 317 319 321 321 321
314 315 315 315 314 315 316 317 318 318 321 322 323 324 326 326 326 327 326 321 319 319 320 321 322 323 324 324 322 321 320 316 318 317 322 321 316 315 316 317 317 316 316 316 315 318 319 321 321
315 316 316 315 314 315 316 318 319 319 319 320 322 323 325 326 326 327 326 324 317 318 319 320 321 321 322 323 323 320 319 318 321 319 321 321 317 316 316 316 316 316 316 316 317 318 318 320 321
316 314 315 315 315 314 317 321 318 320 318 319 321 322 324 325 326 327 326 325 320 317 317 319 320 321 322 321 321 321 321 320 319 318 321 321 318 316 316 316 316 316 317 317 317 318 317 317 318
315 315 315 315 315 315 316 319 319 317 320 320 320 320 321 322 323 324 327 326 325 318 317 317 318 319 320 321 321 321 320 319 320 321 320 318 316 316 316 316 316 318 317 318 318 319 315 318 320
315 315 316 316 317 319 318 319 320 319 321 321 320 319 319 321 322 322 326 326 326 322 317 317 318 319 320 320 320 319 321 320 320 319 316 316 316 316 317 316 316 317 316 319 317 314 314 315 318
315 317 318 321 321 321 318 319 321 319 318 319 320 319 318 319 321 322 324 325 326 325 320 316 316 318 318 319 319 318 318 318 318 320 317 316 317 316 316 316 316 316 318 318 313 313 313 313 314
316 317 320 319 323 322 316 320 320 318 318 316 316 317 319 318 320 321 323 324 325 326 325 319 316 316 318 318 317 317 318 318 319 319 319 318 318 316 315 315 315 315 315 316 315 316 315 314 314
317 317 318 318 318 321 320 320 320 319 320 318 319 317 319 319 319 320 322 323 325 325 326 325 319 316 317 318 317 317 317 317 317 317 318 319 317 315 315 315 315 315 315 315 315 315 315 314 316
318 317 319 318 320 321 320 321 321 319 320 320 319 318 319 319 319 320 321 322 324 324 325 326 325 319 316 316 317 317 316 316 317 318 319 319 318 317 316 315 315 315 316 316 316 315 314 314 317
317 318 318 318 319 320 321 321 319 321 321 320 320 318 319 318 320 321 321 322 323 324 325 326 326 325 321 317 316 316 316 316 316 316 317 317 318 318 317 316 316 315 316 315 315 315 314 318 321
316 317 318 321 320 320 320 321 318 319 318 318 319 319 319 319 318 319 322 322 323 323 324 324 325 325 325 323 318 316 316 315 315 315 314 313 313 314 314 315 316 315 314 314 314 314 317 320 322